User: anonymous   Login
Location: Appeville
(49.3218°N, 1.3427°W)
Time: 00:23:35
(UTC+00:00)
Language:

Nadezhda 4 Rocket - Orbit

View from above orbital plane
View from above orbital plane
View from above satellite
View from above satellite

Ground track
Ground track

The orbit data is extracted from the following two-line orbital elements,

1 23180U 94041B   20047.48366660 -.00000007 +00000-0 -21910-4 0  9990
2 23180 082.9448 286.0189 0029344 015.2439 039.5290 13.77977570286828
Epoch (UTC): 16 February 2020 11:36:28
Eccentricity: 0.0029344
inclination: 82.9448°
perigee height: 949 km
apogee height: 992 km
right ascension of ascending node: 286.0189°
argument of perigee: 15.2439°
revolutions per day: 13.77977570
mean anomaly at epoch: 39.5290°
orbit number at epoch: 28682

The dashed part of the orbit path shows where the satellite is in the earth's shadow,  

DLR